Location: Dodgeville, WI 53533, USA
(43.0344°N, 90.0900°W)
Time: 02:17:08
(UTC-06:00)

N. Korean satellite - Pass Details

Date: 01 February 2021
Orbit: 451 x 502 km, 97.2° (Epoch: 04 March)

Event Time Altitude Azimuth Distance (km) Brightness Sun altitude
Rises 06:34:50 0° 352° (N) 2,484 9.9 -7.8°
Reaches altitude 10° 06:37:41 10° 325° (NW) 1,597 8.7 -7.3°
Maximum altitude 06:39:27 14° 294° (WNW) 1,386 8.2 -7.0°
Drops below altitude 10° 06:41:11 10° 263° (W) 1,586 8.6 -6.7°
Sets 06:44:00 0° 236° (SW) 2,451 9.8 -6.2°
